Regional Weather Roundup
Issued by NWS

Home | Current Version | Previous Version | Graphics & Text | Print | Product List | Glossary On
Versions: 1 2 3 4 5 6 7 8 9 10 11 12 13 14 15 16 17 18 19 20 21 22 23 24 25 26 27 28 29 30 31 32 33 34 35 36 37 38 39 40 41 42 43 44 45 46 47 48 49 50
133
ASUS43 KOAX 241910
RWRNE

WEATHER ROUNDUP FOR NEBRASKA
NATIONAL WEATHER SERVICE OMAHA NE
200 PM CDT WED MAY 24 2017

NOTES: SATELLITE DATA IS BEING USED TO AUGMENT CLOUD COVER ABOVE
       12000 FEET.
       "FAIR" INDICATES FEW OR NO CLOUDS BELOW 12,000 FEET WITH NO
       SIGNIFICANT WEATHER AND/OR OBSTRUCTIONS TO VISIBILITY.

  * THESE STATIONS DO NOT REPORT WEATHER SUCH AS RAIN...SNOW OR FOG.

NEZ001>004-019>022-054>056-242000-
NEBRASKA PANHANDLE

CITY           SKY/WX    TMP DP  RH WIND       PRES   REMARKS
SCOTTSBLUFF    SUNNY     76  44  32 S7        29.60F
ALLIANCE       SUNNY     71  43  36 S13G21    29.62F
CHADRON        SUNNY     73  45  36 SW12      29.56F
GORDON         FAIR      69  40  35 S15       29.61F
KIMBALL        SUNNY     75  41  28 S13       29.66F
SIDNEY         SUNNY     69  46  43 S13       29.68F
$$

NEZ057>060-069>072-079>082-242000-
SOUTHWEST NEBRASKA

CITY           SKY/WX    TMP DP  RH WIND       PRES   REMARKS
NORTH PLATTE   SUNNY     66  42  41 VRB3      29.71F
IMPERIAL       SUNNY     66  42  41 S12       29.71F
LEXINGTON      SUNNY     61  44  52 S7        29.75F
MCCOOK         SUNNY     64  39  39 VRB3      29.73F
OGALLALA       SUNNY     69  40  34 S13G21    29.69F
$$

NEZ005>010-023>029-035>040-094-242000-
NORTH CENTRAL NEBRASKA

CITY           SKY/WX    TMP DP  RH WIND       PRES   REMARKS
VALENTINE      SUNNY     65  35  33 S10G18    29.66F
AINSWORTH      SUNNY     62  42  49 S8        29.69F
BROKEN BOW     SUNNY     61  43  51 VRB6      29.72F
O`NEILL        MOSUNNY   59  40  50 CALM      29.73F
ORD            MOSUNNY   61  41  47 CALM      29.72
THEDFORD       SUNNY     65  36  33 S8G16     29.69F
$$

NEZ041-046>049-061>064-073>077-083>087-242000-
SOUTH CENTRAL NEBRASKA

CITY           SKY/WX    TMP DP  RH WIND       PRES   REMARKS
GRAND ISLAND   MOSUNNY   61  42  49 NW8       29.75F
AURORA         MOSUNNY   62  41  45 NW6       29.74F
HASTINGS       PTSUNNY   60  41  49 SW7       29.76F
HEBRON         PTSUNNY   63  44  49 N5        29.75F
HOLDREGE       SUNNY     59  40  49 CALM      29.76F
KEARNEY *      SUNNY     61  39  44 W7        29.76F
YORK           MOSUNNY   63  43  48 NE6       29.74F
$$

NEZ011>018-030>034-042>045-242000-
NORTHEAST NEBRASKA

CITY           SKY/WX    TMP DP  RH WIND       PRES   REMARKS
NORFOLK        PTSUNNY   63  43  48 VRB6      29.73F
ALBION         CLOUDY    64  42  45 CALM      29.73F
BLAIR          PTSUNNY   62  47  58 N10       29.71F
FREMONT        PTSUNNY   64  43  46 N6        29.73F
TEKAMAH        PTSUNNY   63  46  54 N10       29.72F
WAYNE          PTSUNNY   62  44  51 N5        29.72F
$$

NEZ050>053-065>068-078-088>093-242000-
SOUTHEAST NEBRASKA

CITY           SKY/WX    TMP DP  RH WIND       PRES   REMARKS
LINCOLN        MOSUNNY   66  46  48 N9        29.73F
OMAHA EPPLEY   MOSUNNY   64  44  48 N10       29.71F
BEATRICE       PTSUNNY   65  45  48 N13       29.73F
FALLS CITY     MOSUNNY   66  48  52 N12G17    29.69F
NEBRASKA CITY  MOSUNNY   64  40  41 N13       29.71F
PLATTSMOUTH    PTSUNNY   64  47  52 N6        29.72F
$$

NEZ044-045-051>053-067-242000-
OMAHA AREA

CITY           SKY/WX    TMP DP  RH WIND       PRES   REMARKS
OMAHA EPPLEY   MOSUNNY   64  44  48 N10       29.71F
BLAIR          PTSUNNY   62  47  58 N10       29.71F
FREMONT        PTSUNNY   64  43  46 N6        29.73F
MILLARD        PTSUNNY   64  47  54 NE7       29.72F
OFFUTT AFB     CLOUDY    62  46  56 N7        29.71F
PLATTSMOUTH    PTSUNNY   64  47  52 N6        29.72F
WAHOO          MOCLDY    64  42  43 N7        29.72F
$$




USA.gov is the U.S. government's official web portal to all federal, state and local government web resources and services.